| time (UTC) | temp F | wind direction | speed knots | gust knots | rain 1hr in | rain 24hr in | rain mn in | humidity % | barometer mb |
| 20260510043003 | 54 | 5 | 0.0 | 2.6 | 0.00 | 0.00 | 0.00 | 80 | 1009.0 |
| 20260510041504 | 54 | 5 | 1.7 | 4.3 | 0.00 | 0.00 | 0.00 | 80 | 1008.9 |
| 20260510040027 | 54 | 11 | 1.7 | 2.6 | 0.00 | 0.00 | 0.00 | 81 | 1009.1 |
| 20260510034620 | 54 | 360 | 3.5 | 5.2 | 0.00 | 0.00 | 0.00 | 81 | 1008.8 |
| 20260510033021 | 54 | 335 | 2.6 | 7.0 | 0.00 | 0.00 | 0.00 | 80 | 1008.9 |
| 20260510031520 | 55 | 346 | 2.6 | 5.2 | 0.00 | 0.00 | 0.00 | 80 | 1009.1 |
| 20260510030016 | 55 | 341 | 3.5 | 5.2 | 0.00 | 0.00 | 0.00 | 80 | 1009.2 |
| 20260510024515 | 55 | 360 | 2.6 | 5.2 | 0.00 | 0.00 | 0.00 | 80 | 1009.2 |
| 20260510023013 | 55 | 350 | 2.6 | 5.2 | 0.00 | 0.00 | 0.00 | 80 | 1009.2 |
| 20260510021523 | 56 | 355 | 1.7 | 4.3 | 0.00 | 0.00 | 0.00 | 79 | 1009.3 |
| 20260510020010 | 56 | 355 | 2.6 | 7.0 | 0.00 | 0.00 | 0.00 | 79 | 1009.3 |
| 20260510014508 | 56 | 350 | 3.5 | 5.2 | 0.00 | 0.00 | 0.00 | 80 | 1009.4 |
| 20260510013007 | 56 | 344 | 2.6 | 5.2 | 0.00 | 0.00 | 0.00 | 80 | 1009.5 |
| 20260510011506 | 56 | 333 | 2.6 | 7.0 | 0.00 | 0.00 | 0.00 | 80 | 1009.6 |
| 20260510010007 | 56 | 355 | 1.7 | 3.5 | 0.00 | 0.00 | 0.00 | 79 | 1009.7 |
| 20260510004504 | 56 | 355 | 2.6 | 4.3 | 0.00 | 0.00 | 0.00 | 79 | 1009.9 |
| 20260510003005 | 57 | 355 | 1.7 | 3.5 | 0.00 | 0.00 | 0.00 | 79 | 1010.1 |
| 20260510001504 | 58 | 360 | 1.7 | 4.3 | 0.00 | 0.00 | 0.00 | 80 | 1010.4 |
| 20260510000104 | 58 | 12 | 2.6 | 4.3 | 0.00 | 0.00 | 0.00 | 78 | 1010.5 |
| 20260509234529 | 58 | 20 | 1.7 | 4.3 | 0.00 | 0.00 | 0.00 | 77 | 1010.6 |
| 20260509233101 | 59 | 26 | 1.7 | 7.0 | 0.00 | 0.00 | 0.00 | 76 | 1010.7 |
| 20260509231516 | 59 | 24 | 3.5 | 8.7 | 0.00 | 0.00 | 0.00 | 77 | 1010.6 |
| 20260509230015 | 59 | 25 | 1.7 | 4.3 | 0.00 | 0.00 | 0.00 | 77 | 1010.7 |
| 20260509224512 | 60 | 24 | 1.7 | 4.3 | 0.00 | 0.00 | 0.00 | 77 | 1010.9 |
| 20260509223013 | 60 | 26 | 2.6 | 5.2 | 0.00 | 0.00 | 0.00 | 77 | 1010.8 |
| 20260509221511 | 60 | 32 | 2.6 | 4.3 | 0.00 | 0.00 | 0.00 | 76 | 1010.8 |
| 20260509220007 | 61 | 34 | 0.9 | 3.5 | 0.00 | 0.00 | 0.00 | 74 | 1011.1 |
| 20260509214505 | 62 | 34 | 1.7 | 3.5 | 0.00 | 0.00 | 0.00 | 73 | 1010.9 |
| 20260509213007 | 62 | 34 | 1.7 | 4.3 | 0.00 | 0.00 | 0.00 | 73 | 1011.3 |
| 20260509211508 | 63 | 36 | 1.7 | 4.3 | 0.00 | 0.00 | 0.00 | 71 | 1011.2 |
| 20260509210118 | 63 | 36 | 1.7 | 3.5 | 0.00 | 0.00 | 0.00 | 70 | 1011.0 |
| 20260509203019 | 65 | 35 | 1.7 | 5.2 | 0.00 | 0.00 | 0.00 | 68 | 1010.9 |
| 20260509201604 | 65 | 37 | 2.6 | 5.2 | 0.00 | 0.00 | 0.00 | 68 | 1010.9 |
| 20260509200012 | 66 | 36 | 1.7 | 5.2 | 0.00 | 0.00 | 0.00 | 67 | 1010.8 |
| 20260509194509 | 67 | 39 | 1.7 | 4.3 | 0.00 | 0.00 | 0.00 | 65 | 1010.7 |
| 20260509193012 | 68 | 44 | 1.7 | 4.3 | 0.00 | 0.00 | 0.00 | 64 | 1010.4 |
| 20260509191509 | 68 | 360 | 1.7 | 5.2 | 0.00 | 0.00 | 0.00 | 62 | 1010.4 |
| 20260509190008 | 69 | 40 | 2.6 | 5.2 | 0.00 | 0.00 | 0.00 | 61 | 1010.4 |
| 20260509184508 | 70 | 44 | 2.6 | 5.2 | 0.00 | 0.00 | 0.00 | 59 | 1010.5 |
| 20260509183006 | 70 | 83 | 3.5 | 10.4 | 0.00 | 0.00 | 0.00 | 57 | 1010.2 |
| 20260509181504 | 71 | 79 | 2.6 | 9.6 | 0.00 | 0.00 | 0.00 | 56 | 1010.1 |
| 20260509180004 | 72 | 84 | 4.3 | 10.4 | 0.00 | 0.00 | 0.00 | 55 | 1010.2 |
| 20260509174605 | 73 | 86 | 5.2 | 11.3 | 0.00 | 0.00 | 0.00 | 54 | 1010.2 |
| 20260509173017 | 73 | 83 | 6.1 | 12.2 | 0.00 | 0.00 | 0.00 | 50 | 1010.1 |
| 20260509171525 | 74 | 93 | 2.6 | 9.6 | 0.00 | 0.00 | 0.00 | 50 | 1010.2 |
| 20260509170025 | 74 | 70 | 5.2 | 10.4 | 0.00 | 0.00 | 0.00 | 48 | 1010.3 |
| 20260509164515 | 74 | 90 | 5.2 | 10.4 | 0.00 | 0.00 | 0.00 | 47 | 1010.5 |
| 20260509163015 | 75 | 94 | 3.5 | 7.8 | 0.00 | 0.00 | 0.00 | 49 | 1010.3 |
| 20260509161512 | 74 | 79 | 5.2 | 10.4 | 0.00 | 0.00 | 0.00 | 48 | 1010.5 |
| 20260509160036 | 75 | 83 | 4.3 | 13.9 | 0.00 | 0.00 | 0.00 | 47 | 1010.5 |
| 20260509154519 | 76 | 80 | 2.6 | 12.2 | 0.00 | 0.00 | 0.00 | 45 | 1010.7 |
| 20260509153015 | 76 | 71 | 2.6 | 10.4 | 0.00 | 0.00 | 0.00 | 48 | 1010.8 |
| 20260509151512 | 76 | 97 | 7.8 | 16.5 | 0.00 | 0.00 | 0.00 | 47 | 1011.1 |
| 20260509150017 | 76 | 77 | 5.2 | 11.3 | 0.00 | 0.00 | 0.00 | 49 | 1011.3 |
| 20260509144509 | 76 | 79 | 4.3 | 13.0 | 0.00 | 0.00 | 0.00 | 50 | 1011.4 |
| 20260509143007 | 76 | 42 | 7.8 | 13.9 | 0.00 | 0.00 | 0.00 | 49 | 1011.4 |
| 20260509141509 | 75 | 102 | 3.5 | 10.4 | 0.00 | 0.00 | 0.00 | 51 | 1011.3 |
| 20260509140006 | 75 | 76 | 6.1 | 13.0 | 0.00 | 0.00 | 0.00 | 53 | 1011.4 |
| 20260509134509 | 73 | 49 | 5.2 | 13.0 | 0.00 | 0.00 | 0.00 | 53 | 1011.3 |
| 20260509133103 | 74 | 40 | 8.7 | 16.5 | 0.00 | 0.00 | 0.00 | 54 | 1011.4 |
| 20260509131524 | 73 | 111 | 7.8 | 13.9 | 0.00 | 0.00 | 0.00 | 55 | 1011.5 |
| 20260509130018 | 74 | 57 | 4.3 | 11.3 | 0.00 | 0.00 | 0.00 | 54 | 1011.7 |
| 20260509124521 | 74 | 68 | 7.8 | 14.8 | 0.00 | 0.00 | 0.00 | 53 | 1011.7 |
| 20260509123016 | 74 | 71 | 6.1 | 17.4 | 0.00 | 0.00 | 0.00 | 54 | 1011.9 |
| 20260509121523 | 74 | 46 | 6.1 | 10.4 | 0.00 | 0.00 | 0.00 | 54 | 1012.0 |
| 20260509120015 | 73 | 115 | 3.5 | 9.6 | 0.00 | 0.00 | 0.00 | 56 | 1012.2 |
| 20260509114523 | 73 | 85 | 5.2 | 13.0 | 0.00 | 0.00 | 0.00 | 55 | 1012.4 |
| 20260509113010 | 73 | 82 | 4.3 | 9.6 | 0.00 | 0.00 | 0.00 | 56 | 1012.5 |
| 20260509111511 | 72 | 66 | 3.5 | 8.7 | 0.00 | 0.00 | 0.00 | 57 | 1012.7 |
| 20260509110009 | 70 | 53 | 3.5 | 11.3 | 0.00 | 0.00 | 0.00 | 59 | 1012.8 |
| 20260509104507 | 70 | 44 | 3.5 | 7.8 | 0.00 | 0.00 | 0.00 | 59 | 1013.0 |
| 20260509103006 | 69 | 43 | 4.3 | 9.6 | 0.00 | 0.00 | 0.00 | 61 | 1013.0 |
| 20260509101508 | 69 | 51 | 4.3 | 11.3 | 0.00 | 0.00 | 0.00 | 61 | 1013.0 |
| 20260509100013 | 68 | 48 | 4.3 | 8.7 | 0.00 | 0.00 | 0.00 | 61 | 1013.1 |
| 20260509094511 | 68 | 61 | 2.6 | 5.2 | 0.00 | 0.00 | 0.00 | 64 | 1013.1 |
| 20260509093004 | 67 | 42 | 3.5 | 8.7 | 0.00 | 0.00 | 0.00 | 64 | 1013.3 |
| 20260509091503 | 66 | 85 | 3.5 | 8.7 | 0.00 | 0.00 | 0.00 | 66 | 1013.3 |
| 20260509090005 | 65 | 59 | 1.7 | 6.1 | 0.00 | 0.00 | 0.00 | 69 | 1013.4 |
| 20260509084511 | 63 | 38 | 3.5 | 7.8 | 0.00 | 0.00 | 0.00 | 71 | 1013.4 |
| 20260509083103 | 62 | 355 | 2.6 | 7.8 | 0.00 | 0.00 | 0.00 | 73 | 1013.4 |
| 20260509081521 | 61 | 46 | 1.7 | 6.1 | 0.00 | 0.00 | 0.00 | 74 | 1013.5 |
| 20260509080019 | 59 | 360 | 3.5 | 5.2 | 0.00 | 0.00 | 0.00 | 75 | 1013.8 |
| 20260509074519 | 59 | 24 | 3.5 | 6.1 | 0.00 | 0.00 | 0.00 | 75 | 1013.9 |
| 20260509073018 | 58 | 68 | 1.7 | 5.2 | 0.00 | 0.00 | 0.00 | 76 | 1014.0 |
| 20260509071516 | 57 | 38 | 4.3 | 8.7 | 0.00 | 0.00 | 0.00 | 78 | 1014.0 |
| 20260509070016 | 55 | 44 | 4.3 | 7.8 | 0.00 | 0.00 | 0.00 | 81 | 1014.1 |
| 20260509064512 | 54 | 47 | 2.6 | 6.1 | 0.00 | 0.00 | 0.00 | 84 | 1014.1 |
| 20260509063010 | 53 | 53 | 2.6 | 5.2 | 0.00 | 0.00 | 0.00 | 87 | 1014.0 |
| 20260509061511 | 51 | 355 | 0.9 | 5.2 | 0.00 | 0.00 | 0.00 | 89 | 1014.1 |
| 20260509060011 | 50 | 5 | 3.5 | 7.0 | 0.00 | 0.00 | 0.00 | 89 | 1013.9 |
| 20260509054510 | 49 | 344 | 2.6 | 7.0 | 0.00 | 0.00 | 0.00 | 89 | 1013.9 |
| 20260509053010 | 48 | 342 | 3.5 | 7.0 | 0.00 | 0.00 | 0.00 | 90 | 1013.7 |
| 20260509051505 | 48 | 340 | 2.6 | 5.2 | 0.00 | 0.00 | 0.00 | 89 | 1013.7 |
| 20260509050007 | 47 | 344 | 3.5 | 7.0 | 0.00 | 0.00 | 0.00 | 90 | 1013.7 |
| 20260509044506 | 47 | 355 | 2.6 | 5.2 | 0.00 | 0.00 | 0.00 | 89 | 1013.7 |